الصفحة الرئيسية
METAR-TAF:

METAR-TAF

مطار :

Perry Stokes Airport

Trinidad, كولورادو, الولايات المتحدة

دائرة عرض: 37-16N, خط طول: 104-26W, ارتفاع: 1756 متر

مراقبة الطقس الحالي

تاريخ ووقت الإصدار 38 دقيقة قبل الساعة 18:54UTC
ريح 6 عقدة من الشرق/الجنوب الشرقي
درجة الحرارة 14°درجة مئوية
الرطوبة 21%
ضغط 1019 hPa
الرؤية: 16.1 كم
سماء صافية

METAR: KTAD 171854Z AUTO 11006KT 10SM CLR 14/M08 A3008 RMK AO2 SLP157 T01441078

زمن: 12:32 (19:32 UTC)


TAF: مفقودة

أرصاد الطقس والتوقعات من أكثر من 4000 مطار (تقارير الطقس للمطار METAR والتنبؤ بالطقس بالمطارTAF).

المحطات المتاحة هي النقط الصفراء والحمراء على الخريطة.

حرك المؤشر فوق النقطة لمعرفة اسم المحطة.

ثم انقر لمعرفة أرصاد وتوقعات الطقس.

لتغيير الخارطة: اضغط على الأزرار الخضراء مع رمز الصليب الأسود للتكبير. على الزر الأخضر مع شرطة للتصغير، أو على الأسهم الخضراء للخرائط المجاورة.


METAR-TAF: